period_start,C,m1,H,J0,J1,J2,J3,J4,J5,JA,JB,JC,JD,JJ,JK,JN,#
2014-05-04 00:00:41,0.01,2.12,0.00,17.14,24.17,25.48,6.05,31.04,1001.97,2051.00,2623.05,2786.99,3005.00,349.93,326.01,25.17,0000 0000 0000 0000 000000
2014-05-04 00:01:41,0.01,2.12,0.00,17.18,24.17,25.52,6.01,30.96,1001.97,2051.00,2623.02,2786.98,3005.00,351.17,326.80,25.18,0000 0000 0000 0000 000000
2014-05-04 00:02:41,0.00,2.12,0.00,17.19,24.17,25.53,6.00,31.00,1001.97,2050.99,2623.01,2786.96,3004.98,349.87,325.32,25.18,0000 0000 0000 0000 000000
2014-05-04 00:03:42,0.00,2.12,0.00,17.17,24.17,25.61,6.08,31.00,1001.97,2050.99,2623.00,2786.92,3004.90,349.86,325.58,25.19,0000 0000 0000 0000 000000
2014-05-04 00:04:42,0.03,2.12,0.00,17.16,24.17,25.66,6.15,30.92,1001.97,2050.99,2622.92,2786.73,3004.72,350.90,326.55,25.19,0000 0000 0000 0000 000000
2014-05-04 00:05:42,0.14,2.12,0.00,17.17,24.17,25.64,6.02,30.96,1001.98,2050.99,2622.78,2786.41,3004.50,350.08,325.79,25.20,0000 0000 0000 0000 000000
2014-05-04 00:06:42,0.11,2.12,0.00,17.20,24.17,25.65,6.11,30.92,1001.98,2050.99,2622.80,2786.22,3004.25,350.20,326.02,25.21,0000 0000 0000 0000 000000
2014-05-04 00:07:43,0.07,2.12,0.00,17.20,24.17,25.63,6.05,30.92,1001.98,2050.99,2622.71,2786.11,3004.11,350.00,325.69,25.21,0000 0000 0000 0000 000000
2014-05-04 00:08:43,0.09,2.13,0.00,17.21,24.17,25.61,6.14,30.79,1001.98,2050.99,2622.32,2786.04,3004.05,350.72,326.08,25.22,0000 0000 0000 0000 000000
2014-05-04 00:09:43,0.08,2.13,0.00,17.18,24.17,25.62,6.03,30.92,1001.99,2050.99,2622.12,2786.01,3004.02,349.32,325.07,25.22,0000 0000 0000 0000 000000
2014-05-04 00:10:43,0.04,2.13,0.00,17.15,24.17,25.63,6.13,30.67,1001.99,2050.98,2622.07,2786.00,3004.00,352.15,327.74,25.23,0000 0000 0000 0000 000000
2014-05-04 00:11:44,0.01,2.13,0.00,17.17,24.18,25.66,6.00,30.92,1002.00,2050.96,2622.03,2786.00,3004.00,349.63,325.38,25.24,0000 0000 0000 0000 000000
2014-05-04 00:12:44,0.00,2.13,0.00,17.22,24.18,25.66,6.10,30.96,1002.01,2050.98,2622.01,2786.00,3004.00,349.85,325.53,25.24,0000 0000 0000 0000 000000
2014-05-04 00:13:45,0.01,2.13,0.00,17.22,24.18,25.65,6.00,31.00,1002.01,2050.98,2621.98,2785.98,3003.99,350.17,325.83,25.25,0000 0000 0000 0000 000000
2014-05-04 00:14:45,0.02,2.13,0.00,17.24,24.19,25.66,6.11,31.08,1002.08,2050.97,2621.84,2785.93,3003.90,349.89,325.56,25.25,0000 0000 0000 0000 000000
2014-05-04 00:15:45,0.03,2.13,0.00,17.25,24.19,25.64,6.08,31.04,1002.10,2050.97,2621.86,2785.88,3003.80,350.28,325.93,25.26,0000 0000 0000 0000 000000
2014-05-04 00:16:45,0.05,2.13,0.00,17.28,24.19,25.67,6.02,30.96,1002.20,2050.99,2621.93,2785.83,3003.61,349.18,324.62,25.26,0000 0000 0000 0000 000000
2014-05-04 00:17:45,0.04,2.13,0.00,17.29,24.19,25.66,6.09,30.88,1002.29,2050.98,2621.73,2785.64,3003.36,349.82,325.56,25.27,0000 0000 0000 0000 000000
2014-05-04 00:18:46,0.14,2.13,0.00,17.28,24.19,25.66,6.23,31.00,1002.41,2050.97,2621.42,2785.32,3003.16,350.39,325.70,25.28,0000 0000 0000 0000 000000
2014-05-04 00:19:46,0.15,2.13,0.00,17.30,24.20,25.67,6.05,31.00,1002.44,2050.98,2621.21,2785.16,3003.08,350.70,326.37,25.28,0000 0000 0000 0000 000000
2014-05-04 00:20:46,0.08,2.13,0.00,17.31,24.20,25.66,6.17,31.00,1002.43,2050.96,2621.13,2785.07,3003.03,350.30,325.99,25.29,0000 0000 0000 0000 000000
2014-05-04 00:21:46,0.02,2.13,0.00,17.29,24.20,25.67,6.17,30.88,1002.44,2050.94,2621.08,2785.02,3003.01,350.30,326.00,25.29,0000 0000 0000 0000 000000
2014-05-04 00:22:47,0.03,2.13,0.00,17.28,24.20,25.65,6.02,30.83,1002.45,2050.97,2621.03,2785.00,3003.00,349.55,325.32,25.30,0000 0000 0000 0000 000000
2014-05-04 00:23:47,0.03,2.13,0.00,17.28,24.20,25.65,6.20,30.92,1002.44,2050.99,2620.99,2785.00,3002.97,350.18,325.90,25.31,0000 0000 0000 0000 000000
2014-05-04 00:24:47,0.02,2.13,0.00,17.28,24.20,25.65,5.92,31.00,1002.45,2050.97,2620.82,2784.99,3002.90,349.65,325.94,25.31,0000 0000 0000 0000 000000
2014-05-04 00:25:48,0.06,2.13,0.00,17.27,24.20,25.65,6.07,30.88,1002.44,2050.98,2620.47,2784.97,3002.61,350.10,325.84,25.32,0000 0000 0000 0000 000000
2014-05-04 00:26:48,0.07,2.13,0.00,17.27,24.20,25.66,5.92,31.08,1002.40,2050.94,2620.46,2784.95,3002.41,349.07,324.88,25.32,0000 0000 0000 0000 000000
2014-05-04 00:27:48,0.04,2.13,0.00,17.27,24.20,25.66,6.02,31.08,1002.45,2050.94,2620.27,2784.90,3002.25,349.36,325.15,25.33,0000 0000 0000 0000 000000
2014-05-04 00:28:48,0.08,2.13,0.00,17.30,24.20,25.67,6.04,30.67,1002.46,2050.91,2620.10,2784.58,3002.11,350.03,325.93,25.34,0000 0000 0000 0000 000000
2014-05-04 00:29:49,0.08,2.13,0.00,17.32,24.20,25.58,6.25,30.79,1002.46,2050.92,2620.02,2784.29,3002.06,351.53,327.12,25.34,0000 0000 0000 0000 000000
2014-05-04 00:30:49,0.11,2.13,0.00,17.32,24.20,25.57,6.05,31.17,1002.46,2050.92,2619.99,2784.16,3002.02,349.85,325.35,25.35,0000 0000 0000 0000 000000
2014-05-04 00:31:49,0.06,2.13,0.00,17.36,24.21,25.52,6.08,31.17,1002.46,2050.93,2619.98,2784.11,3002.00,349.46,325.15,25.35,0000 0000 0000 0000 000000
2014-05-04 00:32:49,0.01,2.13,0.00,17.35,24.21,25.54,6.15,31.17,1002.46,2050.92,2619.97,2784.07,3001.99,350.35,325.99,25.36,0000 0000 0000 0000 000000
2014-05-04 00:33:49,0.02,2.13,0.00,17.36,24.21,25.56,5.89,31.25,1002.46,2050.95,2619.96,2784.04,3001.98,349.40,325.74,25.36,0000 0000 0000 0000 000000
2014-05-04 00:34:50,0.02,2.13,0.00,17.40,24.22,25.53,6.20,30.92,1002.49,2050.96,2619.87,2784.01,3001.98,350.48,326.06,25.37,0000 0000 0000 0000 000000
2014-05-04 00:35:50,0.04,2.13,0.00,17.43,24.22,25.58,6.07,30.88,1002.55,2050.97,2619.43,2784.00,3001.93,350.66,326.22,25.38,0000 0000 0000 0000 000000
2014-05-04 00:36:50,0.08,2.13,0.00,17.44,24.22,25.61,6.12,31.04,1002.78,2050.97,2619.24,2784.00,3001.87,349.62,325.51,25.38,0000 0000 0000 0000 000000
2014-05-04 00:37:50,0.03,2.13,0.00,17.42,24.22,25.65,6.07,31.04,1002.83,2050.95,2619.28,2784.00,3001.81,350.13,325.77,25.39,0000 0000 0000 0000 000000
2014-05-04 00:38:51,0.02,2.13,0.00,17.43,24.22,25.66,6.15,31.21,1002.86,2050.87,2619.11,2784.00,3001.45,349.87,325.56,25.39,0000 0000 0000 0000 000000
2014-05-04 00:39:51,-0.00,2.13,0.00,17.42,24.22,25.63,6.05,30.92,1002.91,2050.85,2619.04,2783.99,3001.19,349.68,325.43,25.40,0000 0000 0000 0000 000000
2014-05-04 00:40:51,0.03,2.13,0.00,17.44,24.22,25.61,5.97,31.08,1002.94,2050.77,2619.01,2783.95,3001.07,349.09,324.88,25.41,0000 0000 0000 0000 000000
2014-05-04 00:41:51,0.00,2.13,0.00,17.49,24.22,25.66,5.99,31.00,1002.94,2050.80,2618.88,2783.66,3001.02,349.78,325.46,25.41,0000 0000 0000 0000 000000
2014-05-04 00:42:52,0.19,2.14,0.00,17.51,24.22,25.68,6.14,31.08,1002.94,2050.89,2618.82,2783.53,3001.01,350.82,326.40,25.42,0000 0000 0000 0000 000000
2014-05-04 00:43:52,0.09,2.14,0.00,17.51,24.22,25.70,6.17,30.96,1002.94,2050.88,2618.82,2783.35,3001.00,350.74,326.34,25.42,0000 0000 0000 0000 000000
2014-05-04 00:44:52,0.01,2.14,0.00,17.52,24.22,25.73,6.03,30.92,1002.94,2050.80,2618.57,2783.16,3001.00,349.55,325.21,25.43,0000 0000 0000 0000 000000
2014-05-04 00:45:52,0.00,2.14,0.00,17.54,24.23,25.76,6.04,30.92,1002.94,2050.73,2618.38,2783.07,3001.00,349.78,325.24,25.43,0000 0000 0000 0000 000000
2014-05-04 00:46:53,0.07,2.14,0.00,17.53,24.23,25.72,6.10,30.83,1002.95,2050.80,2618.20,2783.03,3000.97,349.54,325.41,25.44,0000 0000 0000 0000 000000
2014-05-04 00:47:53,0.08,2.14,0.00,17.52,24.24,25.73,6.10,31.00,1002.95,2050.65,2618.09,2783.01,3000.84,349.87,325.52,25.45,0000 0000 0000 0000 000000
2014-05-04 00:48:53,-0.17,2.14,0.00,17.53,24.24,25.72,5.95,31.04,1002.97,2050.50,2617.99,2783.00,3000.51,349.77,325.42,25.45,0000 0000 0000 0000 000000
2014-05-04 00:49:53,0.03,2.14,0.00,17.55,24.25,25.74,6.07,30.83,1002.97,2050.60,2617.89,2782.98,3000.29,349.48,324.93,25.46,0000 0000 0000 0000 000000
2014-05-04 00:50:54,0.16,2.14,0.00,17.56,24.25,25.76,6.14,31.04,1002.97,2050.72,2617.92,2782.98,3000.16,350.32,325.65,25.46,0000 0000 0000 0000 000000
2014-05-04 00:51:54,0.08,2.14,0.00,17.58,24.25,25.76,6.03,31.00,1002.96,2050.66,2617.88,2782.96,3000.07,349.82,325.74,25.47,0000 0000 0000 0000 000000
2014-05-04 00:52:54,-0.08,2.14,0.00,17.57,24.25,25.75,6.08,30.96,1003.01,2050.57,2617.76,2782.77,3000.02,350.19,325.78,25.48,0000 0000 0000 0000 000000
2014-05-04 00:53:54,0.10,2.14,0.00,17.56,24.25,25.74,6.14,30.92,1003.05,2050.51,2617.66,2782.53,3000.00,350.31,326.20,25.48,0000 0000 0000 0000 000000
2014-05-04 00:54:55,0.03,2.14,0.00,17.56,24.25,25.74,6.17,30.88,1003.03,2050.40,2617.47,2782.32,3000.00,350.53,326.24,25.49,0000 0000 0000 0000 000000
2014-05-04 00:55:55,-0.03,2.14,0.00,17.57,24.25,25.75,5.92,30.79,1002.98,2050.24,2617.25,2782.13,3000.00,349.92,325.52,25.49,0000 0000 0000 0000 000000
2014-05-04 00:56:55,-0.01,2.14,0.00,17.59,24.26,25.78,6.06,31.08,1003.01,2050.19,2617.10,2782.05,2999.97,350.07,325.97,25.50,0000 0000 0000 0000 000000
2014-05-04 00:57:55,0.00,2.14,0.00,17.60,24.27,25.81,5.98,30.96,1003.01,2050.16,2617.04,2782.02,2999.94,350.26,325.54,25.51,0000 0000 0000 0000 000000
2014-05-04 00:58:55,0.00,2.14,0.00,17.59,24.27,25.81,6.10,30.96,1003.00,2050.18,2617.01,2782.00,2999.94,349.81,325.17,25.51,0000 0000 0000 0000 000000
2014-05-04 00:59:55,0.01,2.14,0.00,17.57,24.27,25.82,6.08,30.96,1003.05,2050.09,2617.00,2782.00,2999.71,349.70,325.24,25.52,0000 0000 0000 0000 000000
2014-05-04 01:00:55,0.00,2.14,0.00,17.57,24.27,25.81,6.17,30.83,1003.02,2050.06,2616.98,2782.00,2999.34,350.37,325.68,25.52,0000 0000 0000 0000 000000
2014-05-04 01:01:56,0.02,2.14,0.00,17.53,24.27,25.82,6.10,30.92,1002.99,2050.11,2616.90,2782.00,2999.16,350.05,325.67,25.53,0000 0000 0000 0000 000000
2014-05-04 01:02:56,0.09,2.14,0.00,17.52,24.27,25.82,6.11,31.00,1002.96,2050.13,2616.71,2781.99,2999.07,350.74,326.33,25.53,0000 0000 0000 0000 000000
2014-05-04 01:03:57,0.04,2.14,0.00,17.52,24.27,25.82,6.02,30.75,1002.98,2050.10,2616.43,2781.95,2999.02,349.74,325.40,25.54,0000 0000 0000 0000 000000
2014-05-04 01:04:57,0.06,2.14,0.00,17.53,24.27,25.88,6.05,30.88,1003.00,2050.10,2616.23,2781.85,2999.00,349.59,325.25,25.55,0000 0000 0000 0000 000000
2014-05-04 01:05:57,0.05,2.14,0.00,17.52,24.28,25.86,6.02,30.75,1002.97,2050.05,2616.10,2781.62,2999.00,350.37,326.00,25.55,0000 0000 0000 0000 000000
2014-05-04 01:06:57,0.06,2.14,0.00,17.54,24.28,25.87,6.07,30.92,1002.97,2050.04,2616.03,2781.31,2999.00,349.63,325.12,25.56,0000 0000 0000 0000 000000
2014-05-04 01:07:57,0.10,2.14,0.00,17.57,24.29,25.85,6.14,30.88,1002.95,2050.05,2616.01,2781.11,2998.97,350.23,325.80,25.56,0000 0000 0000 0000 000000
2014-05-04 01:08:58,0.05,2.14,0.00,17.55,24.30,25.80,6.12,30.79,1002.97,2050.03,2615.88,2781.04,2998.81,349.19,324.86,25.57,0000 0000 0000 0000 000000
2014-05-04 01:09:58,0.05,2.14,0.00,17.52,24.30,25.77,6.09,30.88,1003.03,2050.01,2615.53,2781.01,2998.44,350.81,326.42,25.58,0000 0000 0000 0000 000000
2014-05-04 01:10:58,0.13,2.14,0.00,17.54,24.30,25.81,6.01,30.92,1003.07,2050.04,2615.22,2781.00,2998.17,349.65,325.14,25.58,0000 0000 0000 0000 000000
2014-05-04 01:11:58,0.11,2.14,0.00,17.56,24.30,25.83,6.13,30.88,1003.09,2050.04,2615.10,2780.98,2998.07,350.39,326.01,25.59,0000 0000 0000 0000 000000
2014-05-04 01:12:59,0.05,2.14,0.00,17.59,24.30,25.81,6.23,30.88,1003.12,2050.06,2615.03,2780.98,2998.02,350.24,325.84,25.59,0000 0000 0000 0000 000000
2014-05-04 01:13:59,0.02,2.14,0.00,17.64,24.30,25.83,6.03,30.92,1003.18,2050.04,2615.01,2780.97,2998.00,349.26,324.89,25.60,0000 0000 0000 0000 000000
2014-05-04 01:14:59,0.00,2.14,0.00,17.62,24.31,25.83,6.06,30.96,1003.35,2050.03,2614.96,2780.83,2998.00,349.49,325.17,25.60,0000 0000 0000 0000 000000
2014-05-04 01:15:59,0.03,2.14,0.00,17.61,24.31,25.84,6.14,31.00,1003.41,2050.02,2614.82,2780.47,2998.00,350.77,326.40,25.61,0000 0000 0000 0000 000000
2014-05-04 01:16:59,0.10,2.14,0.00,17.62,24.32,25.83,6.10,30.92,1003.43,2050.03,2614.85,2780.25,2997.96,350.52,326.17,25.62,0000 0000 0000 0000 000000
2014-05-04 01:18:00,0.09,2.14,0.00,17.60,24.32,25.86,6.02,30.79,1003.43,2050.02,2614.82,2780.14,2997.91,350.41,325.87,25.62,0000 0000 0000 0000 000000
2014-05-04 01:19:00,0.03,2.14,0.00,17.62,24.32,25.87,6.13,31.00,1003.43,2050.01,2614.50,2780.07,2997.72,350.37,326.16,25.63,0000 0000 0000 0000 000000
2014-05-04 01:20:00,0.11,2.15,0.00,17.63,24.32,25.85,5.91,30.88,1003.43,2050.01,2614.19,2780.02,2997.40,349.29,324.59,25.63,0000 0000 0000 0000 000000
2014-05-04 01:21:00,0.11,2.15,0.00,17.62,24.32,25.86,6.13,30.96,1003.43,2050.01,2614.07,2780.00,2997.21,349.56,325.27,25.64,0000 0000 0000 0000 000000
2014-05-04 01:22:00,0.04,2.15,0.00,17.64,24.32,25.87,6.00,30.88,1003.43,2050.00,2614.02,2780.00,2997.11,349.37,325.43,25.65,0000 0000 0000 0000 000000
2014-05-04 01:23:01,0.01,2.15,0.00,17.63,24.32,25.90,6.00,30.54,1003.43,2050.00,2614.01,2780.00,2997.04,349.26,324.98,25.65,0000 0000 0000 0000 000000
2014-05-04 01:24:01,0.01,2.15,0.00,17.64,24.34,25.87,5.96,30.83,1003.43,2050.00,2613.98,2779.99,2997.01,350.19,325.84,25.66,0000 0000 0000 0000 000000
2014-05-04 01:25:01,0.01,2.15,0.00,17.65,24.34,25.87,6.08,30.92,1003.43,2050.00,2613.89,2779.95,2997.00,349.94,325.59,25.66,0000 0000 0000 0000 000000
2014-05-04 01:26:02,0.03,2.15,0.00,17.66,24.35,25.88,6.08,30.92,1003.43,2050.00,2613.78,2779.93,2997.00,349.41,325.09,25.67,0000 0000 0000 0000 000000
2014-05-04 01:27:02,0.02,2.15,0.00,17.64,24.35,25.87,6.11,30.88,1003.43,2050.01,2613.54,2779.86,2996.99,350.27,325.91,25.68,0000 0000 0000 0000 000000
2014-05-04 01:28:02,0.07,2.15,0.00,17.63,24.35,25.86,6.13,30.88,1003.43,2050.01,2613.33,2779.73,2996.98,350.87,326.73,25.68,0000 0000 0000 0000 000000
2014-05-04 01:29:03,0.08,2.15,0.00,17.63,24.35,25.84,6.10,30.75,1003.43,2050.01,2613.28,2779.55,2996.96,350.34,326.11,25.69,0000 0000 0000 0000 000000
2014-05-04 01:30:03,0.07,2.15,0.00,17.61,24.35,25.84,6.15,30.83,1003.43,2050.01,2613.16,2779.34,2996.87,349.81,325.66,25.69,0000 0000 0000 0000 000000
2014-05-04 01:31:03,0.08,2.15,0.00,17.61,24.35,25.86,5.90,30.88,1003.43,2050.01,2613.07,2779.15,2996.57,348.79,324.57,25.70,0000 0000 0000 0000 000000
2014-05-04 01:32:03,0.13,2.15,0.00,17.59,24.36,25.87,6.03,30.79,1003.43,2050.00,2613.02,2779.05,2996.26,349.42,325.36,25.70,0000 0000 0000 0000 000000
2014-05-04 01:33:03,0.06,2.15,0.00,17.57,24.37,25.86,6.09,30.92,1003.43,2050.00,2613.01,2779.02,2996.11,349.81,325.76,25.71,0000 0000 0000 0000 000000
2014-05-04 01:34:04,0.03,2.15,0.00,17.57,24.37,25.88,6.13,30.92,1003.46,2050.00,2612.98,2779.00,2996.04,350.47,326.21,25.72,0000 0000 0000 0000 000000
2014-05-04 01:35:04,0.02,2.15,0.00,17.57,24.37,25.90,6.08,30.75,1003.49,2050.00,2612.91,2779.00,2996.01,350.04,326.14,25.72,0000 0000 0000 0000 000000
2014-05-04 01:36:04,0.01,2.15,0.00,17.58,24.37,25.89,6.15,30.67,1003.47,2050.00,2612.66,2779.00,2996.00,350.85,326.89,25.73,0000 0000 0000 0000 000000
2014-05-04 01:37:04,0.06,2.15,0.00,17.57,24.37,25.86,6.04,30.83,1003.44,2050.00,2612.35,2778.99,2996.00,349.66,325.42,25.73,0000 0000 0000 0000 000000
2014-05-04 01:38:04,0.05,2.15,0.00,17.59,24.37,25.87,6.20,30.88,1003.45,2050.00,2612.21,2778.97,2995.99,350.92,326.58,25.74,0000 0000 0000 0000 000000
2014-05-04 01:39:05,0.02,2.15,0.00,17.60,24.37,25.85,5.97,30.75,1003.43,2050.00,2612.15,2778.94,2995.99,350.38,325.86,25.75,0000 0000 0000 0000 000000
2014-05-04 01:40:05,0.04,2.15,0.00,17.62,24.38,25.88,6.02,30.67,1003.44,2050.00,2612.07,2778.76,2995.95,350.27,326.37,25.75,0000 0000 0000 0000 000000
2014-05-04 01:41:05,0.06,2.15,0.00,17.63,24.39,25.89,6.06,30.75,1003.44,2050.00,2612.02,2778.41,2995.78,349.80,325.68,25.76,0000 0000 0000 0000 000000
2014-05-04 01:42:05,0.13,2.15,0.00,17.67,24.39,25.93,5.89,30.79,1003.44,2050.00,2612.00,2778.22,2995.48,349.34,325.30,25.76,0000 0000 0000 0000 000000
2014-05-04 01:43:06,0.12,2.15,0.00,17.63,24.40,26.01,6.06,30.88,1003.44,2050.00,2611.94,2778.12,2995.21,349.80,324.94,25.77,0000 0000 0000 0000 000000
2014-05-04 01:44:06,0.06,2.15,0.00,17.63,24.40,25.97,6.07,30.92,1003.47,2050.00,2611.80,2778.05,2995.08,350.25,325.91,25.77,0000 0000 0000 0000 000000
2014-05-04 01:45:06,0.06,2.15,0.00,17.64,24.40,25.94,6.04,30.83,1003.46,2050.00,2611.78,2778.02,2995.03,350.41,326.06,25.78,0000 0000 0000 0000 000000
2014-05-04 01:46:06,0.02,2.15,0.00,17.61,24.40,25.92,5.97,30.92,1003.46,2049.99,2611.65,2778.00,2995.02,349.36,325.11,25.79,0000 0000 0000 0000 000000
2014-05-04 01:47:07,0.01,2.15,0.00,17.60,24.40,25.94,5.92,31.00,1003.48,2049.99,2611.27,2778.00,2995.00,348.97,324.71,25.79,0000 0000 0000 0000 000000
2014-05-04 01:48:07,0.08,2.15,0.00,17.59,24.40,25.92,6.14,30.92,1003.48,2049.98,2611.11,2778.00,2995.00,350.43,326.13,25.80,0000 0000 0000 0000 000000
2014-05-04 01:49:07,0.01,2.15,0.00,17.61,24.41,25.93,6.00,31.08,1003.57,2049.99,2611.04,2777.98,2994.99,349.42,325.19,25.80,0000 0000 0000 0000 000000
2014-05-04 01:50:07,0.03,2.16,0.00,17.63,24.42,25.91,6.04,31.00,1003.66,2049.98,2611.01,2777.93,2994.91,350.51,326.22,25.81,0000 0000 0000 0000 000000
2014-05-04 01:51:07,0.02,2.16,0.00,17.63,24.42,25.90,6.05,31.04,1003.66,2049.99,2611.00,2777.80,2994.76,350.12,325.65,25.82,0000 0000 0000 0000 000000
2014-05-04 01:52:08,0.06,2.16,0.00,17.62,24.42,25.93,6.10,30.88,1003.57,2049.98,2610.97,2777.61,2994.49,349.54,325.28,25.82,0000 0000 0000 0000 000000
2014-05-04 01:53:08,0.09,2.16,0.00,17.61,24.42,25.94,6.20,31.00,1003.59,2049.96,2610.91,2777.35,2994.24,350.70,326.40,25.83,0000 0000 0000 0000 000000
2014-05-04 01:54:08,0.14,2.16,0.00,17.61,24.42,25.93,5.98,31.00,1003.67,2049.96,2610.66,2777.16,2994.12,349.34,325.16,25.83,0000 0000 0000 0000 000000
2014-05-04 01:55:09,0.12,2.16,0.00,17.61,24.42,25.98,6.03,31.17,1003.71,2049.99,2610.38,2777.08,2994.04,349.60,325.41,25.84,0000 0000 0000 0000 000000
2014-05-04 01:56:09,0.08,2.16,0.00,17.63,24.42,25.98,6.07,30.79,1003.72,2049.99,2610.15,2777.04,2994.01,350.88,326.60,25.84,0000 0000 0000 0000 000000
2014-05-04 01:57:09,0.05,2.16,0.00,17.64,24.44,25.98,6.01,31.00,1003.79,2049.98,2610.05,2777.01,2993.99,350.65,326.38,25.85,0000 0000 0000 0000 000000
2014-05-04 01:58:09,0.02,2.16,0.00,17.67,24.44,26.01,6.21,30.71,1003.90,2049.98,2610.02,2777.00,2993.99,350.93,326.64,25.86,0000 0000 0000 0000 000000
2014-05-04 01:59:09,0.00,2.16,0.00,17.67,24.45,25.96,6.02,30.96,1003.92,2049.98,2609.99,2777.00,2993.98,349.49,325.47,25.86,0000 0000 0000 0000 000000
2014-05-04 02:00:10,0.00,2.16,0.00,17.65,24.45,25.94,6.05,30.96,1003.92,2049.97,2609.89,2776.99,2993.95,349.50,325.34,25.87,0000 0000 0000 0000 000000
2014-05-04 02:01:10,0.01,2.16,0.00,17.63,24.45,25.99,6.17,30.88,1003.92,2049.99,2609.60,2776.93,2993.70,351.23,326.97,25.87,0000 0000 0000 0000 000000
2014-05-04 02:02:10,0.12,2.16,0.00,17.63,24.45,25.98,6.14,30.83,1003.92,2049.98,2609.52,2776.91,2993.44,350.65,326.69,25.88,0000 0000 0000 0000 000000
2014-05-04 02:03:10,0.04,2.16,0.00,17.62,24.45,25.96,6.13,30.83,1003.92,2049.95,2609.33,2776.63,2993.21,349.97,326.12,25.89,0000 0000 0000 0000 000000
2014-05-04 02:04:11,0.16,2.16,0.00,17.61,24.45,26.00,6.06,30.88,1003.92,2049.95,2609.18,2776.32,2993.09,349.91,325.95,25.89,0000 0000 0000 0000 000000
2014-05-04 02:05:11,0.12,2.16,0.00,17.62,24.45,25.99,6.10,30.88,1003.93,2049.98,2609.12,2776.26,2993.04,350.22,326.05,25.90,0000 0000 0000 0000 000000
2014-05-04 02:06:11,0.03,2.16,0.00,17.64,24.45,25.95,6.17,30.96,1003.94,2049.96,2609.06,2776.14,2993.01,350.38,326.18,25.90,0000 0000 0000 0000 000000
2014-05-04 02:07:11,0.04,2.16,0.00,17.67,24.47,25.96,6.10,30.83,1003.98,2049.97,2609.03,2776.06,2993.00,348.15,324.08,25.91,0000 0000 0000 0000 000000
2014-05-04 02:08:12,0.03,2.16,0.00,17.68,24.47,25.95,5.98,30.88,1004.15,2049.97,2609.01,2776.04,2993.00,348.63,324.56,25.91,0000 0000 0000 0000 000000
2014-05-04 02:09:12,0.01,2.16,0.00,17.70,24.47,25.98,6.16,30.96,1004.30,2049.96,2608.99,2776.01,2992.99,350.78,326.60,25.92,0000 0000 0000 0000 000000
2014-05-04 02:10:12,0.00,2.16,0.00,17.72,24.47,26.02,6.10,30.92,1004.37,2049.93,2608.83,2776.00,2992.94,350.20,325.72,25.93,0000 0000 0000 0000 000000
2014-05-04 02:11:12,0.01,2.16,0.00,17.70,24.47,26.03,6.16,30.83,1004.41,2049.94,2608.77,2776.00,2992.92,350.57,326.56,25.93,0000 0000 0000 0000 000000
2014-05-04 02:12:13,0.03,2.16,0.00,17.67,24.47,25.94,5.97,30.83,1004.41,2049.88,2608.43,2775.98,2992.62,348.84,324.86,25.94,0000 0000 0000 0000 000000
2014-05-04 02:13:13,0.08,2.16,0.00,17.68,24.47,25.95,6.18,30.79,1004.41,2049.88,2608.20,2775.96,2992.34,351.61,327.44,25.94,0000 0000 0000 0000 000000
2014-05-04 02:14:13,0.08,2.16,0.00,17.68,24.47,25.99,6.14,30.83,1004.41,2049.88,2608.12,2775.94,2992.16,350.99,326.84,25.95,0000 0000 0000 0000 000000
2014-05-04 02:15:14,0.04,2.16,0.00,17.71,24.48,26.00,6.04,30.92,1004.41,2049.92,2608.06,2775.82,2992.06,349.88,326.21,25.96,0000 0000 0000 0000 000000
2014-05-04 02:16:14,0.10,2.16,0.00,17.71,24.49,25.98,6.17,30.92,1004.41,2049.87,2608.02,2775.50,2992.02,350.99,326.82,25.96,0000 0000 0000 0000 000000
2014-05-04 02:17:14,0.05,2.16,0.00,17.72,24.49,25.96,6.14,30.96,1004.41,2049.82,2608.01,2775.23,2992.00,349.84,326.20,25.97,0000 0000 0000 0000 000000
2014-05-04 02:18:14,0.02,2.17,0.00,17.74,24.50,25.98,6.25,30.88,1004.42,2049.76,2608.00,2775.10,2992.00,351.23,326.99,25.97,0000 0000 0000 0000 000000
2014-05-04 02:19:14,-0.02,2.17,0.00,17.78,24.50,25.93,6.16,30.92,1004.42,2049.74,2607.98,2775.06,2992.00,350.01,325.45,25.98,0000 0000 0000 0000 000000
2014-05-04 02:20:15,-0.03,2.16,0.00,17.80,24.50,26.00,6.11,30.79,1004.43,2049.60,2607.89,2775.02,2991.98,350.22,325.92,25.99,0000 0000 0000 0000 000000
2014-05-04 02:21:15,-0.08,2.16,0.00,17.79,24.50,25.98,6.00,30.92,1004.42,2049.52,2607.63,2775.00,2991.98,348.48,324.94,25.99,0000 0000 0000 0000 000000
2014-05-04 02:22:15,0.01,2.16,0.00,17.78,24.50,26.00,6.08,30.92,1004.44,2049.43,2607.31,2775.00,2991.89,350.02,325.72,26.00,0000 0000 0000 0000 000000
2014-05-04 02:23:16,0.04,2.16,0.00,17.75,24.50,26.01,6.24,30.88,1004.44,2049.48,2607.16,2775.00,2991.74,350.58,326.39,26.00,0000 0000 0000 0000 000000
2014-05-04 02:24:16,0.07,2.16,0.00,17.77,24.50,26.01,6.10,31.00,1004.43,2049.39,2607.08,2775.00,2991.48,350.05,325.88,26.01,0000 0000 0000 0000 000000
2014-05-04 02:25:16,-0.01,2.16,0.00,17.76,24.51,26.03,6.06,31.08,1004.44,2049.36,2607.03,2774.96,2991.19,349.34,325.24,26.01,0000 0000 0000 0000 000000
2014-05-04 02:26:17,0.03,2.17,0.00,17.76,24.52,26.02,6.05,31.13,1004.43,2049.32,2607.00,2774.80,2991.07,349.89,325.75,26.02,0000 0000 0000 0000 000000
2014-05-04 02:27:17,0.07,2.17,0.00,17.77,24.52,26.02,6.32,31.17,1004.42,2049.23,2606.98,2774.52,2991.02,350.84,326.62,26.03,0000 0000 0000 0000 000000
2014-05-04 02:28:17,-0.02,2.17,0.00,17.74,24.52,25.97,6.19,31.00,1004.49,2049.14,2606.94,2774.23,2991.00,350.71,326.69,26.03,0000 0000 0000 0000 000000
2014-05-04 02:29:17,0.00,2.17,0.00,17.74,24.52,25.99,6.12,31.04,1004.52,2049.09,2606.93,2774.10,2991.00,349.69,325.59,26.04,0000 0000 0000 0000 000000
2014-05-04 02:30:18,0.00,2.17,0.00,17.72,24.52,26.03,6.05,31.04,1004.56,2049.05,2606.77,2774.05,2990.96,349.62,325.89,26.04,0000 0000 0000 0000 000000
2014-05-04 02:31:18,0.03,2.17,0.00,17.71,24.52,26.03,6.12,30.83,1004.53,2049.07,2606.65,2774.04,2990.96,350.74,326.83,26.05,0000 0000 0000 0000 000000
2014-05-04 02:32:18,0.05,2.17,0.00,17.72,24.52,26.04,6.20,30.92,1004.65,2049.11,2606.47,2774.01,2990.97,350.12,326.07,26.06,0000 0000 0000 0000 000000
2014-05-04 02:33:18,0.07,2.17,0.00,17.72,24.52,26.04,6.18,30.83,1004.67,2049.13,2606.27,2774.00,2990.90,350.28,326.46,26.06,0000 0000 0000 0000 000000
2014-05-04 02:34:18,0.05,2.17,0.00,17.74,24.53,26.02,6.08,30.79,1004.72,2049.09,2606.11,2774.00,2990.55,349.34,325.78,26.07,0000 0000 0000 0000 000000
2014-05-04 02:35:19,0.03,2.17,0.00,17.74,24.54,26.00,6.10,30.83,1004.81,2049.08,2606.04,2774.00,2990.24,351.55,327.43,26.07,0000 0000 0000 0000 000000
2014-05-04 02:36:19,0.05,2.17,0.00,17.73,24.54,26.01,6.00,31.04,1004.81,2049.08,2606.01,2773.99,2990.10,349.58,325.61,26.08,0000 0000 0000 0000 000000